カタログに戻る

ARIANE 44L DEB

運用中HEO
NORAD 24723·DEBRIS·🇫🇷 France

打ち上げ Jan 15, 1991 から Guiana Space Centre

Loading…

次のパス (今後24時間)

TLE

最新Source: Space-Track

元期: Sep 14, 2026, 16:15 UTC

1 24723U 91003F   26257.67719480 -.00000100  00000-0  50272-3 0  9996
2 24723   6.7620  44.4427 6845865 119.6194 302.1186  2.65128094293629

AllMySatでARIANE 44L DEBをリアルタイム追跡

Download on the App Store